Weather History for KGLH - May, 2013

Change the Weather History Date:

Thursday, May 16, 2013

  Actual Average Record
Temperature  
Mean Temperature 70 °F 72 °F  
Max Temperature 77 °F 82 °F 93 °F (1998)
Min Temperature 63 °F 62 °F 46 °F (1973)
Degree Days  
Heating Degree Days 0 0  
Month to date heating degree days 52 10  
Since 1 July heating degree days 2695 2771  
Cooling Degree Days 5 8  
Month to date cooling degree days 31 97  
Year to date cooling degree days 110 183  
Growing Degree Days 20 (Base 50)    
Moisture  
Dew Point 64 °F    
Average Humidity 79    
Maximum Humidity 93    
Minimum Humidity 64    
Precipitation  
Precipitation 0.36 in 0.17 in 2.50 in (1980)
Month to date precipitation 1.58 2.83  
Year to date precipitation 22.24 22.18  
Sea Level Pressure  
Sea Level Pressure 29.95 in    
Wind  
Wind Speed 9 mph (SSE)    
Max Wind Speed 20 mph    
Max Gust Speed 25 mph    
Visibility 9 miles    
Events Rain , Thunderstorm    
T = Trace of Precipitation, MM = Missing Value Source: NWS Daily Summary

Daily Weather History Graph

Daily Weather History Graph

Search for Another Location

Airport or City:

Trip Planner

Search our weather history database for the weather conditions in past years. The results will help you decide how hot, cold, wet, or windy it might be!

Date:

Astronomy

May. 16, 2013 Rise Set
Actual Time 6:02 AM CDT 7:58 PM CDT
Civil Twilight 5:35 AM CDT 8:25 PM CDT
Nautical Twilight 5:01 AM CDT 8:59 PM CDT
Astronomical Twilight 4:26 AM CDT 9:35 PM CDT
Moon 11:30 AM CDT (5/16) 12:23 AM CDT (5/16)
Length of Visible Light 14h 50m
Length of Day
13h 55m
Waxing Crescent, 36% of the Moon is Illuminated
May 16
Waxing Crescent
May 17
First Quarter
May 24
Full
May 31
Last Quarter
Jun 8
New

Hourly Weather History & Observations

Time (CDT) Temp. Dew Point Humidity Pressure Visibility Wind Dir Wind Speed Gust Speed Precip Events Conditions
12:53 AM 68.0 °F 62.1 °F 81% 29.99 in 10.0 mi Calm Calm - 0.00 in Rain Light Rain
1:53 AM 66.0 °F 61.0 °F 84% 29.98 in 10.0 mi Calm Calm - 0.00 in   Partly Cloudy
2:53 AM 64.9 °F 62.1 °F 90% 29.96 in 10.0 mi South 6.9 mph - N/A   Mostly Cloudy
3:53 AM 64.0 °F 61.0 °F 90% 29.97 in 10.0 mi South 9.2 mph - N/A   Clear
4:53 AM 64.9 °F 62.1 °F 90% 29.97 in 10.0 mi South 4.6 mph - N/A   Mostly Cloudy
5:53 AM 64.9 °F 62.1 °F 90% 29.96 in 10.0 mi South 6.9 mph - N/A   Mostly Cloudy
6:53 AM 66.0 °F 63.0 °F 90% 29.99 in 9.0 mi South 5.8 mph - N/A   Overcast
7:53 AM 66.9 °F 63.0 °F 87% 29.99 in 10.0 mi SSE 6.9 mph - N/A   Mostly Cloudy
8:53 AM 69.1 °F 64.0 °F 84% 29.99 in 10.0 mi SSE 10.4 mph - N/A   Overcast
9:53 AM 72.0 °F 64.0 °F 76% 29.97 in 10.0 mi SSE 9.2 mph - N/A   Partly Cloudy
10:53 AM 72.0 °F 64.0 °F 76% 29.96 in 10.0 mi SSE 10.4 mph 18.4 mph N/A   Clear
11:53 AM 72.0 °F 63.0 °F 73% 29.97 in 10.0 mi South 11.5 mph - N/A   Clear
12:53 PM 73.9 °F 64.0 °F 71% 29.96 in 10.0 mi South 11.5 mph 18.4 mph N/A   Mostly Cloudy
1:53 PM 75.0 °F 63.0 °F 66% 29.95 in 10.0 mi South 12.7 mph - N/A   Scattered Clouds
2:53 PM 75.0 °F 64.0 °F 69% 29.94 in 10.0 mi South 15.0 mph - 0.00 in   Mostly Cloudy
3:53 PM 73.9 °F 64.0 °F 71% 29.94 in 10.0 mi SSW 10.4 mph - 0.00 in Rain Light Rain
4:53 PM 75.0 °F 64.0 °F 69% 29.93 in 10.0 mi South 9.2 mph - 0.00 in   Mostly Cloudy
5:53 PM 75.9 °F 63.0 °F 64% 29.90 in 10.0 mi South 11.5 mph - N/A   Clear
6:53 PM 75.9 °F 63.0 °F 64% 29.87 in 10.0 mi SSE 11.5 mph - N/A   Clear
7:53 PM 73.9 °F 63.0 °F 68% 29.89 in 10.0 mi SSE 5.8 mph - N/A   Partly Cloudy
8:53 PM 71.1 °F 64.9 °F 81% 29.91 in 9.0 mi SE 5.8 mph - 0.00 in Rain Light Rain
9:53 PM 70.0 °F 66.0 °F 87% 29.92 in 6.0 mi East 6.9 mph - 0.08 in Rain , Thunderstorm Rain
10:02 PM 69.8 °F 66.2 °F 88% 29.91 in 6.0 mi East 5.8 mph - 0.01 in Rain Rain
10:53 PM 69.1 °F 66.9 °F 93% 29.93 in 8.0 mi ESE 8.1 mph - 0.05 in Rain Light Rain
11:53 PM 69.1 °F 66.0 °F 90% 29.89 in 5.0 mi SE 13.8 mph 21.9 mph 0.06 in Rain Rain